Total_Precipitation_Accumulation
0.01 0.04 0.19 0.38 0.73 1.23 1.30 0.83 0.69 0.45 0.35 0.37 0.30 0.27 0.35 0.53 0.69 0.91 0.37 0.12 0.03 0.02 0.05 0.11 0.12 0.10 0.10 0.12 0.16 0.19 0.19 0.21 0.22 0.23 0.26 0.29 0.34 0.32 0.30 0.29 0.28 0.28 0.23 0.21 0.22 0.23 0.23 0.23 0.24
0.02 0.05 0.20 0.41 0.90 1.48 1.21 0.59 0.41 0.34 0.32 0.36 0.34 0.34 0.50 0.51 0.38 0.36 0.20 0.10 0.04 0.02 0.03 0.05 0.09 0.09 0.08 0.10 0.14 0.18 0.19 0.18 0.19 0.25 0.26 0.26 0.30 0.30 0.30 0.29 0.29 0.26 0.20 0.19 0.18 0.20 0.21 0.19 0.18
0.01 0.06 0.20 0.42 0.79 1.07 0.84 0.46 0.31 0.26 0.34 0.48 0.50 0.41 0.59 0.53 0.39 0.34 0.19 0.07 0.05 0.04 0.07 0.07 0.09 0.08 0.08 0.09 0.13 0.17 0.20 0.19 0.21 0.25 0.25 0.25 0.27 0.29 0.29 0.32 0.32 0.29 0.23 0.20 0.19 0.19 0.17 0.15 0.14
0.02 0.08 0.18 0.34 0.47 0.48 0.44 0.32 0.26 0.26 0.33 0.46 0.55 0.53 0.60 0.41 0.25 0.23 0.16 0.09 0.05 0.05 0.10 0.10 0.09 0.08 0.07 0.08 0.10 0.14 0.17 0.20 0.23 0.25 0.25 0.28 0.31 0.32 0.27 0.31 0.31 0.29 0.25 0.22 0.23 0.20 0.13 0.13 0.14
0.03 0.08 0.18 0.31 0.36 0.37 0.33 0.29 0.27 0.34 0.41 0.50 0.56 0.73 0.71 0.46 0.31 0.22 0.16 0.11 0.04 0.05 0.07 0.09 0.11 0.10 0.10 0.10 0.10 0.12 0.17 0.19 0.20 0.23 0.28 0.31 0.33 0.34 0.33 0.30 0.26 0.24 0.21 0.20 0.25 0.25 0.22 0.19 0.20
0.03 0.05 0.12 0.22 0.29 0.32 0.29 0.24 0.21 0.30 0.45 0.60 0.68 0.77 0.79 0.59 0.43 0.31 0.20 0.15 0.10 0.07 0.09 0.13 0.15 0.14 0.12 0.12 0.13 0.16 0.18 0.20 0.20 0.22 0.25 0.26 0.25 0.27 0.29 0.27 0.26 0.23 0.23 0.25 0.25 0.25 0.27 0.31 0.29
0.02 0.03 0.05 0.13 0.19 0.21 0.22 0.24 0.22 0.27 0.43 0.59 0.66 0.88 0.95 0.79 0.56 0.41 0.32 0.33 0.32 0.19 0.16 0.18 0.21 0.23 0.20 0.21 0.23 0.23 0.24 0.23 0.22 0.24 0.27 0.26 0.26 0.28 0.28 0.27 0.26 0.25 0.27 0.28 0.28 0.25 0.25 0.30 0.32
0.01 0.02 0.03 0.07 0.13 0.20 0.17 0.19 0.20 0.28 0.32 0.44 0.54 0.73 0.98 0.81 0.58 0.58 0.69 0.67 0.70 0.49 0.34 0.31 0.36 0.43 0.37 0.30 0.30 0.30 0.30 0.29 0.29 0.31 0.33 0.36 0.37 0.36 0.39 0.36 0.35 0.34 0.35 0.34 0.34 0.32 0.32 0.34 0.34
0.01 0.01 0.02 0.05 0.08 0.14 0.11 0.15 0.18 0.16 0.23 0.32 0.42 0.54 0.72 0.62 0.61 0.84 1.12 0.98 0.92 0.77 0.54 0.42 0.38 0.48 0.53 0.46 0.38 0.42 0.43 0.41 0.43 0.52 0.54 0.60 0.72 0.70 0.72 0.60 0.63 0.64 0.66 0.65 0.63 0.57 0.54 0.48 0.44
0.00 0.01 0.01 0.02 0.04 0.06 0.07 0.11 0.15 0.19 0.38 0.64 0.74 0.73 0.70 0.80 0.90 1.13 1.26 1.14 1.05 0.97 0.74 0.61 0.52 0.47 0.52 0.54 0.66 0.77 0.75 0.74 0.79 0.94 0.96 1.15 1.24 1.14 0.83 0.85 1.08 1.26 1.31 1.24 1.23 1.19 0.99 0.85 0.82
0.00 0.00 0.01 0.01 0.02 0.03 0.05 0.08 0.13 0.22 0.53 0.90 1.11 1.08 1.00 1.15 1.37 1.56 1.63 1.58 1.41 1.29 0.98 0.77 0.71 0.71 0.69 0.81 0.80 0.92 1.09 1.23 1.22 1.19 1.32 1.50 1.39 1.15 0.98 1.09 1.29 1.47 1.57 1.70 1.97 1.98 1.64 1.64 1.71
0.00 0.00 0.00 0.01 0.01 0.02 0.04 0.06 0.16 0.35 0.72 0.89 1.08 1.18 1.11 1.28 1.49 1.65 2.08 2.15 1.73 1.43 1.30 1.15 1.03 1.02 1.07 0.99 1.07 1.08 1.10 1.17 1.22 1.37 1.45 1.58 1.66 1.55 1.45 1.54 1.62 1.79 1.92 2.28 2.29 2.40 2.30 2.10 1.85
0.00 0.00 0.00 0.01 0.01 0.01 0.03 0.07 0.16 0.34 0.53 0.63 0.84 0.95 0.92 1.27 1.59 1.95 2.52 2.46 2.14 1.89 1.69 1.51 1.49 1.51 1.45 1.40 1.41 1.28 1.28 1.28 1.36 1.51 1.67 1.74 1.80 1.77 1.76 1.83 1.90 1.74 1.86 2.15 2.39 2.34 2.50 2.52 2.28
0.00 0.00 0.01 0.01 0.01 0.02 0.03 0.10 0.20 0.40 0.53 0.72 0.75 0.92 1.13 1.48 1.75 2.18 2.53 2.76 2.59 2.25 1.97 1.81 1.75 1.81 1.86 1.78 1.81 1.74 1.50 1.52 1.50 1.69 1.75 1.86 1.92 1.98 2.06 2.07 2.03 1.84 1.84 2.08 2.32 2.28 2.57 2.49 2.45
0.01 0.02 0.04 0.03 0.03 0.05 0.06 0.21 0.40 0.53 0.68 0.83 0.95 1.05 1.26 1.60 2.08 2.34 2.58 2.89 2.88 2.72 2.51 2.27 2.14 2.27 2.42 2.43 2.33 2.16 1.93 1.72 1.73 1.82 1.87 1.94 1.96 2.11 2.10 2.04 2.01 1.98 1.96 2.15 2.27 2.33 2.49 2.32 2.21
0.01 0.03 0.09 0.10 0.07 0.07 0.13 0.48 0.58 0.50 0.75 0.94 1.01 1.17 1.55 1.93 2.35 2.80 2.93 2.84 2.86 2.95 2.88 2.55 2.33 2.73 3.01 2.97 2.84 2.63 2.32 2.04 1.90 1.95 1.92 1.97 2.02 2.13 2.27 2.05 1.95 2.17 2.18 2.30 2.55 2.53 2.68 2.76 2.65
0.01 0.05 0.10 0.14 0.09 0.10 0.22 0.66 0.58 0.43 0.61 0.81 1.04 1.23 1.70 2.21 2.55 2.71 2.77 2.92 3.05 3.13 3.07 2.92 2.96 3.06 3.16 3.23 3.26 2.99 2.72 2.42 2.13 1.99 1.91 1.92 2.01 2.23 2.53 2.35 2.33 2.37 2.37 2.39 2.14 2.66 2.97 2.97 2.81
0.01 0.04 0.09 0.15 0.12 0.15 0.26 0.50 0.53 0.48 0.64 0.86 1.19 1.41 1.56 1.94 2.38 2.49 2.60 3.04 3.11 3.28 3.37 3.22 3.29 3.41 3.66 3.84 3.91 3.50 3.08 2.72 2.41 2.19 2.13 2.15 2.34 2.49 2.70 2.48 2.43 2.44 2.53 2.49 2.57 2.94 2.92 2.69 2.69
0.01 0.04 0.11 0.15 0.13 0.20 0.30 0.50 0.64 0.63 0.81 1.20 1.43 1.44 1.42 1.72 2.21 2.57 2.81 2.99 3.31 3.48 3.61 3.56 3.71 4.04 4.33 4.16 3.78 3.53 3.19 2.94 2.73 2.49 2.33 2.31 2.29 2.43 2.67 2.50 2.66 2.57 2.44 2.43 2.55 2.81 2.82 2.53 2.74
0.02 0.06 0.14 0.16 0.15 0.24 0.38 0.60 0.76 0.85 1.10 1.27 1.21 1.22 1.39 1.76 2.25 2.61 2.85 2.97 3.21 3.52 3.93 3.99 4.10 4.40 4.50 4.28 4.11 3.91 3.69 3.27 3.13 2.98 2.73 2.38 2.22 2.30 2.36 2.59 2.40 2.38 2.43 2.40 2.53 2.71 2.55 2.22 2.65
0.04 0.07 0.13 0.14 0.21 0.34 0.43 0.81 0.98 1.10 1.24 1.24 1.21 1.42 1.46 1.55 1.95 2.22 2.30 2.48 2.65 2.82 3.06 3.31 3.74 4.21 4.29 4.30 4.22 4.14 4.07 3.52 3.25 3.05 2.76 2.45 2.24 2.17 2.23 2.34 2.35 2.28 2.22 2.23 2.43 2.48 2.44 2.32 2.43
0.06 0.06 0.06 0.10 0.19 0.45 0.51 1.03 1.25 1.44 1.53 1.34 1.30 1.27 1.29 1.53 1.86 1.88 1.75 1.90 2.14 2.14 2.42 2.78 3.20 3.51 3.69 3.81 3.76 3.72 3.56 3.30 3.17 2.99 2.60 2.34 2.17 2.11 2.13 2.15 2.11 2.10 2.04 2.06 1.98 2.07 2.42 2.52 2.30
0.05 0.04 0.07 0.11 0.19 0.40 0.46 0.80 1.29 1.66 1.78 1.40 1.27 1.18 1.28 1.50 1.56 1.55 1.57 1.67 1.83 1.99 2.29 2.55 2.82 3.07 3.22 3.27 3.28 3.29 3.13 2.96 2.87 2.72 2.44 2.20 2.06 1.95 1.80 1.82 1.96 1.96 1.88 1.83 1.85 1.99 2.11 2.13 2.10
0.04 0.07 0.13 0.20 0.36 0.71 0.61 0.71 1.21 1.55 1.41 1.21 1.16 1.00 1.09 1.32 1.41 1.47 1.54 1.66 1.78 2.06 2.38 2.61 2.81 3.01 3.05 2.83 2.70 2.65 2.65 2.61 2.49 2.30 2.11 1.90 1.80 1.69 1.55 1.60 1.73 1.73 1.73 1.73 1.68 1.74 1.83 1.89 1.94
0.08 0.17 0.56 0.92 1.24 1.13 0.71 0.81 1.39 1.26 0.91 0.84 0.93 0.92 0.93 1.00 1.15 1.26 1.43 1.64 1.80 1.89 1.93 2.24 2.59 2.80 2.75 2.52 2.33 2.21 2.27 2.30 2.20 2.03 1.93 1.81 1.61 1.47 1.43 1.44 1.46 1.46 1.48 1.54 1.58 1.59 1.66 1.80 1.86
0.13 0.24 0.69 0.95 0.99 0.97 0.77 1.17 1.60 1.20 0.81 0.67 0.77 0.79 0.69 0.65 0.63 0.72 0.89 0.99 1.07 1.09 1.11 1.23 1.45 1.67 1.77 1.69 1.68 1.68 1.71 1.73 1.71 1.78 1.67 1.64 1.51 1.37 1.34 1.28 1.22 1.24 1.28 1.30 1.46 1.53 1.63 1.76 1.80
0.24 0.28 0.29 0.49 0.68 1.01 1.02 1.19 1.21 0.96 0.78 0.73 0.83 0.76 0.60 0.54 0.49 0.56 0.66 0.66 0.74 0.76 0.80 0.92 1.10 1.26 1.32 1.32 1.32 1.35 1.34 1.39 1.42 1.42 1.37 1.39 1.37 1.29 1.26 1.24 1.24 1.18 1.19 1.27 1.38 1.45 1.48 1.61 1.68
0.20 0.28 0.42 0.67 0.90 1.02 1.09 1.36 1.49 1.32 1.08 0.96 0.92 0.76 0.57 0.47 0.44 0.48 0.55 0.55 0.65 0.77 0.90 1.05 1.14 1.16 1.14 1.16 1.15 1.07 1.17 1.19 1.23 1.18 1.11 1.10 1.11 1.13 1.12 1.10 1.11 1.12 1.10 1.13 1.25 1.31 1.37 1.47 1.51
0.23 0.30 0.45 0.62 0.69 0.87 1.19 1.27 1.00 0.94 0.97 1.05 1.05 0.87 0.60 0.45 0.41 0.43 0.50 0.51 0.58 0.70 0.82 0.92 1.01 1.11 1.08 1.04 1.07 1.11 1.12 1.12 1.10 1.06 0.98 1.01 1.03 1.02 0.97 0.98 1.02 1.06 1.09 1.12 1.16 1.17 1.25 1.28 1.31
0.22 0.32 0.47 0.70 0.76 0.80 0.93 0.99 0.58 0.57 0.68 0.80 0.81 0.65 0.47 0.39 0.37 0.40 0.43 0.42 0.52 0.65 0.73 0.74 0.79 0.94 0.96 0.94 1.01 1.11 1.11 1.06 1.00 0.93 0.88 0.92 0.95 0.96 0.92 0.95 0.98 0.99 1.02 1.10 1.17 1.21 1.25 1.25 1.24